"startDT [UTC]","vpos","CH4 [ppm]","stdev(CH4) [ppm]","CO2 [ppm]","stdev(CO2) [ppm]","H2O_reported [%]","stdev(H2O_reported)","CavityPressure [torr]","CavityTemp [C]","OutletValve","CH4_dry [ppm]","CO2_dry [ppm]","DasTemp [C]","EtalonTemp [C]","WarmBoxTemp [C]","MPVPosition","T_ECpre [C]","T_EC1 [C]","T_EC2 [C]","p_inlet [hPa]","p_in [hPa]","p_out [hPa]","T_inlet [C]","RH_inlet [%]","dwpt_inlet [C]","T_vent [C]","RH_vent [%]","dwpt_vent [C]","flow_vent [l min-1]","flow_inlet [l min-1]","dwpt_sample [C]","T_room [C]"
2016-10-19 00:00:00,0.0,1.96434,0.00259,407.200,0.057,0.3024,0.0022,140.001,45.000,31738.01737,1.97035,408.695,36.438,45.070,45.000,0.00,0.07,-272.89,-272.91,-7,526,-949,21.1,9.3,-12.6,21.5,9.2,-12.5,0.47,2.01,-9.3,27.7
2016-10-19 00:01:00,0.0,1.96447,0.00085,407.269,0.037,0.3062,0.0027,140.000,45.000,31737.78996,1.97035,408.777,36.438,45.070,45.000,0.00,0.07,-272.87,-272.92,-9,526,-949,21.1,9.4,-12.5,21.5,9.2,-12.5,0.48,1.87,-9.3,27.7
2016-10-19 00:02:00,0.0,1.96775,0.00098,407.342,0.044,0.3103,0.0019,140.001,45.000,31737.61038,1.97372,408.874,36.442,45.070,45.000,0.00,0.07,-272.89,-272.92,-7,527,-949,21.0,9.5,-12.4,21.5,9.3,-12.3,0.47,1.85,-9.3,27.7
2016-10-19 00:03:00,0.0,1.96712,0.00204,407.322,0.066,0.3106,0.0026,139.998,45.000,31737.91419,1.97337,408.857,36.448,45.070,45.000,0.00,0.07,-272.88,-272.92,-8,526,-949,21.0,9.5,-12.4,21.5,9.4,-12.2,0.48,2.03,-9.3,27.7
2016-10-19 00:04:00,0.0,1.95975,0.00420,407.072,0.203,0.3095,0.0020,140.002,45.000,31739.03356,1.96621,408.613,36.453,45.070,45.000,0.00,0.07,-272.88,-272.92,-8,526,-949,21.0,9.5,-12.4,21.5,9.3,-12.3,0.47,1.72,-9.3,27.7
2016-10-19 00:05:00,0.0,1.95738,0.00418,409.256,1.816,0.3150,0.0023,139.999,45.000,31737.36917,1.96300,410.797,36.444,45.070,45.000,0.00,0.07,-272.89,-272.92,-7,526,-949,21.1,9.7,-12.2,21.5,9.4,-12.1,0.48,2.11,-9.3,27.7
2016-10-19 00:06:00,0.0,1.96490,0.00183,407.565,0.224,0.3163,0.0021,140.001,45.000,31737.72979,1.97113,409.129,36.422,45.070,45.000,0.00,0.07,-272.87,-272.93,-9,526,-949,21.1,9.7,-12.1,21.5,9.5,-12.0,0.48,1.71,-9.3,27.7
2016-10-19 00:07:00,0.0,1.96236,0.00057,407.511,0.107,0.3188,0.0013,140.002,45.000,31737.34012,1.96855,409.089,36.379,45.070,45.000,0.00,0.07,-272.88,-272.91,-8,526,-949,21.0,9.7,-12.1,21.5,9.6,-12.0,0.47,2.04,-9.3,27.7
2016-10-19 00:08:00,0.0,1.96834,0.00265,408.024,0.376,0.3197,0.0022,140.000,45.000,31736.99251,1.97431,409.610,36.377,45.071,45.000,0.00,0.07,-272.88,-272.92,-8,526,-949,21.0,9.8,-12.0,21.5,9.6,-11.9,0.48,1.84,-9.3,27.7
2016-10-19 00:09:00,0.0,1.96541,0.00116,407.864,0.395,0.3183,0.0019,140.000,45.000,31737.13089,1.97184,409.439,36.375,45.071,45.001,0.00,0.07,-272.89,-272.92,-9,526,-949,21.0,9.7,-12.1,21.5,9.6,-11.9,0.47,1.89,-9.3,27.7
2016-10-19 00:10:00,0.0,1.96769,0.00143,407.564,0.074,0.3173,0.0014,140.000,45.000,31737.60344,1.97382,409.133,36.375,45.071,45.000,0.00,0.07,-272.88,-272.91,-7,526,-949,21.0,9.7,-12.1,21.5,9.6,-11.9,0.48,2.00,-9.3,27.7
2016-10-19 00:11:00,0.0,1.97046,0.00266,407.514,0.143,0.3161,0.0024,139.999,45.000,31737.79567,1.97636,409.081,36.375,45.071,45.001,0.00,0.07,-272.88,-272.91,-8,526,-949,21.1,9.7,-12.2,21.5,9.5,-12.0,0.47,1.74,-9.3,27.7
2016-10-19 00:12:00,0.0,1.96891,0.00373,407.379,0.054,0.3127,0.0016,140.002,45.000,31738.39461,1.97542,408.924,36.395,45.071,45.000,0.00,0.07,-272.89,-272.92,-8,526,-949,21.0,9.6,-12.3,21.5,9.4,-12.1,0.48,2.10,-9.3,27.7
2016-10-19 00:13:00,0.0,1.96303,0.00146,407.418,0.188,0.3065,0.0025,140.000,45.000,31737.52394,1.96907,408.927,36.398,45.071,45.000,0.00,0.07,-272.88,-272.92,-7,526,-949,21.1,9.3,-12.6,21.5,9.3,-12.3,0.48,1.71,-9.3,27.7
2016-10-19 00:14:00,0.0,1.96120,0.00104,407.739,0.077,0.3010,0.0024,140.001,45.000,31737.39621,1.96701,409.225,36.382,45.070,45.000,0.00,0.07,-272.88,-272.91,-9,526,-949,21.0,9.2,-12.8,21.5,9.2,-12.5,0.48,2.07,-9.3,27.7
2016-10-19 00:15:00,0.0,1.96342,0.00127,408.049,0.141,0.2968,0.0019,139.999,45.000,31736.42137,1.96922,409.516,36.375,45.070,45.000,0.00,0.07,-272.87,-272.92,-8,526,-949,21.0,9.1,-12.9,21.5,9.0,-12.7,0.48,1.80,-9.3,27.6
2016-10-19 00:16:00,0.0,1.96244,0.00152,408.064,0.112,0.2942,0.0023,140.000,45.000,31733.96910,1.96831,409.524,36.375,45.070,45.000,0.00,0.07,-272.89,-272.92,-7,526,-949,21.1,9.0,-13.0,21.5,8.9,-12.8,0.47,1.94,-9.3,27.7
2016-10-19 00:17:00,0.0,1.95892,0.00064,407.703,0.057,0.2928,0.0015,140.000,45.000,31735.00432,1.96457,409.152,36.378,45.070,45.000,0.00,0.07,-272.87,-272.92,-9,527,-949,21.1,9.0,-13.1,21.5,8.9,-12.9,0.48,1.95,-9.3,27.7
2016-10-19 00:18:00,0.0,1.96162,0.00123,407.903,0.084,0.2915,0.0018,139.999,45.000,31735.36173,1.96719,409.341,36.384,45.070,45.000,0.00,0.07,-272.88,-272.92,-7,526,-949,21.1,9.0,-13.1,21.5,8.9,-12.9,0.47,1.78,-9.3,27.7
2016-10-19 00:19:00,0.0,1.96120,0.00087,407.879,0.083,0.2908,0.0013,139.998,45.000,31735.67887,1.96694,409.319,36.386,45.070,45.000,0.00,0.07,-272.89,-272.92,-8,526,-949,21.0,9.0,-13.1,21.5,8.8,-13.0,0.48,2.08,-9.3,27.7
2016-10-19 00:20:00,0.0,1.96085,0.00048,407.885,0.069,0.2922,0.0016,140.003,45.000,31736.57270,1.96650,409.326,36.379,45.070,45.000,0.00,0.07,-272.88,-272.91,-8,527,-949,21.1,9.0,-13.1,21.5,8.8,-13.0,0.47,1.70,-9.3,27.7
2016-10-19 00:21:00,0.0,1.96068,0.00060,407.866,0.080,0.2923,0.0024,140.001,45.000,31737.22325,1.96637,409.313,36.376,45.070,45.000,0.00,0.07,-272.89,-272.91,-7,526,-949,21.1,9.0,-13.0,21.5,8.8,-12.9,0.48,2.10,-9.3,27.7
2016-10-19 00:22:00,0.0,1.95985,0.00054,407.758,0.071,0.2918,0.0017,139.999,45.000,31734.67124,1.96558,409.204,36.377,45.070,45.000,0.00,0.07,-272.89,-272.93,-9,526,-949,21.0,9.0,-13.1,21.5,8.8,-12.9,0.48,1.75,-9.3,27.7
2016-10-19 00:23:00,0.0,1.96003,0.00086,407.653,0.081,0.2916,0.0021,140.000,45.000,31734.88362,1.96564,409.093,36.385,45.070,45.000,0.00,0.07,-272.89,-272.92,-8,527,-949,21.1,9.0,-13.1,21.5,8.8,-13.0,0.47,1.99,-9.3,27.6
2016-10-19 00:24:00,0.0,1.96081,0.00078,407.695,0.052,0.2931,0.0015,140.000,45.000,31735.42579,1.96653,409.143,36.388,45.070,45.000,0.00,0.07,-272.87,-272.92,-7,526,-949,21.1,9.0,-13.0,21.5,8.9,-12.9,0.48,1.90,-9.3,27.7
2016-10-19 00:25:00,0.0,1.96291,0.00246,407.762,0.134,0.2928,0.0016,139.999,45.000,31735.07674,1.96843,409.205,36.422,45.070,45.000,0.00,0.07,-272.88,-272.92,-9,526,-949,21.1,9.1,-13.0,21.5,8.9,-12.9,0.47,1.83,-9.3,27.7
2016-10-19 00:26:00,0.0,1.96135,0.00267,407.526,0.144,0.2958,0.0022,139.999,45.000,31735.14300,1.96738,408.998,36.418,45.070,45.000,0.00,0.07,-272.89,-272.93,-7,526,-949,21.0,9.1,-12.9,21.5,9.0,-12.8,0.48,2.06,-9.3,27.7
2016-10-19 00:27:00,0.0,1.95932,0.00217,407.226,0.115,0.2992,0.0021,140.002,45.000,31736.10244,1.96502,408.705,36.398,45.070,45.000,0.00,0.07,-272.88,-272.91,-8,526,-949,21.0,9.2,-12.8,21.5,9.0,-12.8,0.47,1.71,-9.3,27.7
2016-10-19 00:28:00,0.0,1.96538,0.00145,407.386,0.111,0.3029,0.0020,140.002,45.000,31736.02296,1.97113,408.873,36.375,45.070,45.000,0.00,0.07,-272.88,-272.91,-8,526,-949,21.1,9.3,-12.6,21.5,9.1,-12.6,0.48,2.10,-9.3,27.7
2016-10-19 00:29:00,0.0,1.96613,0.00115,407.568,0.039,0.3040,0.0017,140.001,45.000,31736.12550,1.97210,409.071,36.384,45.071,45.000,0.00,0.07,-272.88,-272.92,-7,526,-949,21.1,9.3,-12.6,21.5,9.2,-12.5,0.48,1.73,-9.3,27.7
2016-10-19 00:30:00,0.0,1.96170,0.00131,407.506,0.095,0.3029,0.0014,140.001,45.000,31736.60359,1.96775,409.003,36.374,45.071,45.000,0.00,0.07,-272.89,-272.92,-9,526,-949,21.0,9.3,-12.6,21.5,9.2,-12.5,0.47,2.02,-9.3,27.7
2016-10-19 00:31:00,0.0,1.96011,0.00108,407.469,0.039,0.3040,0.0016,140.001,45.000,31736.39351,1.96590,408.971,36.371,45.071,45.000,0.00,0.07,-272.87,-272.92,-7,526,-949,21.0,9.3,-12.6,21.5,9.2,-12.5,0.48,1.87,-9.3,27.7
2016-10-19 00:32:00,0.0,1.96169,0.00077,407.477,0.060,0.3098,0.0023,140.000,45.000,31735.46536,1.96781,409.011,36.371,45.071,45.000,0.00,0.07,-272.89,-272.92,-8,526,-949,21.1,9.5,-12.4,21.5,9.3,-12.4,0.47,1.86,-9.3,27.7
2016-10-19 00:33:00,0.0,1.96637,0.00291,407.496,0.081,0.3119,0.0017,140.000,45.000,31736.57169,1.97218,409.035,36.370,45.071,45.000,0.00,0.07,-272.88,-272.93,-9,526,-949,21.0,9.6,-12.3,21.5,9.4,-12.2,0.48,2.02,-9.3,27.7
2016-10-19 00:34:00,0.0,1.96661,0.00276,407.726,0.099,0.3088,0.0021,140.000,45.000,31734.77916,1.97293,409.251,36.367,45.071,45.000,0.00,0.07,-272.87,-272.92,-7,526,-949,21.0,9.5,-12.4,21.5,9.3,-12.3,0.48,1.73,-9.3,27.7
2016-10-19 00:35:00,0.0,1.96455,0.00133,407.782,0.055,0.3037,0.0022,139.998,45.000,31734.39142,1.97036,409.285,36.363,45.071,45.000,0.00,0.07,-272.88,-272.92,-8,526,-949,21.1,9.3,-12.6,21.5,9.2,-12.4,0.48,2.10,-9.3,27.7
2016-10-19 00:36:00,0.0,1.96407,0.00107,407.766,0.047,0.3014,0.0023,139.996,45.000,31735.64014,1.96994,409.256,36.364,45.071,45.000,0.00,0.07,-272.88,-272.92,-8,526,-949,21.1,9.3,-12.7,21.5,9.1,-12.5,0.48,1.71,-9.3,27.7
2016-10-19 00:37:00,0.0,1.96183,0.00162,407.698,0.051,0.3034,0.0024,139.998,45.000,31737.55906,1.96766,409.196,36.372,45.070,45.000,0.00,0.07,-272.88,-272.91,-7,526,-949,21.0,9.3,-12.7,21.5,9.1,-12.6,0.48,2.06,-9.3,27.7
2016-10-19 00:38:00,0.0,1.96464,0.00087,407.835,0.051,0.3060,0.0017,140.000,45.000,31737.52826,1.97067,409.345,36.372,45.071,45.000,0.00,0.07,-272.88,-272.91,-9,526,-949,21.0,9.4,-12.6,21.5,9.2,-12.4,0.48,1.81,-9.3,27.7
2016-10-19 00:39:00,0.0,1.96586,0.00106,407.948,0.054,0.3069,0.0015,139.995,45.000,31735.63593,1.97181,409.467,36.347,45.070,45.000,0.00,0.07,-272.89,-272.91,-8,526,-949,21.1,9.4,-12.5,21.5,9.2,-12.4,0.47,1.92,-9.3,27.7
2016-10-19 00:40:00,0.0,1.96245,0.00121,407.645,0.102,0.3059,0.0018,140.000,45.000,31737.32595,1.96848,409.162,36.321,45.071,45.000,0.00,0.07,-272.88,-272.92,-8,526,-949,21.0,9.4,-12.5,21.5,9.2,-12.4,0.48,1.97,-9.3,27.7
2016-10-19 00:41:00,0.0,1.96246,0.00073,407.561,0.034,0.3063,0.0014,139.997,45.000,31737.08551,1.96845,409.075,36.313,45.071,45.000,0.00,0.07,-272.88,-272.91,-9,527,-949,21.1,9.4,-12.5,21.5,9.2,-12.4,0.47,1.77,-9.3,27.7
2016-10-19 00:42:00,0.0,1.96236,0.00148,407.589,0.040,0.3060,0.0013,139.996,45.000,31735.29709,1.96821,409.101,36.333,45.071,45.000,0.00,0.07,-272.88,-272.92,-7,526,-949,21.1,9.4,-12.5,21.5,9.3,-12.4,0.48,2.09,-9.3,27.6
2016-10-19 00:43:00,0.0,1.96761,0.00125,407.686,0.042,0.3057,0.0017,139.999,45.000,31736.29003,1.97340,409.195,36.344,45.071,45.000,0.00,0.07,-272.88,-272.93,-8,526,-949,21.1,9.4,-12.5,21.5,9.2,-12.4,0.47,1.70,-9.3,27.7
2016-10-19 00:44:00,0.0,1.96415,0.00205,407.685,0.046,0.3063,0.0022,140.000,45.000,31737.55861,1.97035,409.202,36.334,45.071,45.000,0.00,0.07,-272.87,-272.92,-8,527,-949,21.1,9.4,-12.5,21.5,9.2,-12.4,0.48,2.09,-9.3,27.7
2016-10-19 00:45:00,0.0,1.96298,0.00095,407.718,0.059,0.3095,0.0025,139.998,45.000,31734.47558,1.96907,409.246,36.348,45.070,45.000,0.00,0.07,-272.88,-272.92,-7,526,-949,21.0,9.5,-12.4,21.5,9.3,-12.3,0.48,1.76,-9.3,27.7
2016-10-19 00:46:00,0.0,1.95962,0.00097,407.714,0.053,0.3128,0.0021,139.999,45.000,31737.48824,1.96580,409.260,36.367,45.070,45.000,0.00,0.07,-272.89,-272.92,-9,526,-949,21.1,9.6,-12.3,21.5,9.4,-12.3,0.47,1.98,-9.3,27.6
2016-10-19 00:47:00,0.0,1.95862,0.00055,407.729,0.046,0.3143,0.0019,140.001,45.000,31740.07252,1.96469,409.283,36.373,45.070,45.000,0.00,0.07,-272.88,-272.92,-7,527,-949,21.0,9.6,-12.2,21.5,9.5,-12.1,0.48,1.91,-9.3,27.7
2016-10-19 00:48:00,0.0,1.95921,0.00058,407.731,0.037,0.3131,0.0015,139.998,45.000,31737.85133,1.96535,409.280,36.375,45.070,45.000,0.00,0.07,-272.88,-272.91,-7,526,-949,21.1,9.6,-12.2,21.5,9.4,-12.1,0.47,1.82,-9.3,27.7
2016-10-19 00:49:00,0.0,1.95803,0.00061,407.637,0.031,0.3104,0.0018,139.999,45.000,31738.84396,1.96405,409.173,36.375,45.070,45.000,0.00,0.07,-272.89,-272.92,-9,526,-949,21.0,9.5,-12.4,21.5,9.4,-12.2,0.48,2.05,-9.3,27.7
2016-10-19 00:50:00,0.0,1.96105,0.00151,407.716,0.047,0.3088,0.0022,140.000,45.000,31739.35149,1.96691,409.241,36.373,45.070,45.000,0.00,0.07,-272.88,-272.92,-7,527,-949,21.1,9.5,-12.4,21.5,9.3,-12.3,0.47,1.72,-9.3,27.7
2016-10-19 00:51:00,0.0,1.96617,0.00127,407.703,0.065,0.3069,0.0018,139.999,45.000,31739.73302,1.97202,409.223,36.349,45.070,45.000,0.00,0.07,-272.89,-272.91,-8,526,-949,21.1,9.4,-12.5,21.4,9.3,-12.3,0.48,2.10,-9.3,27.7
2016-10-19 00:52:00,0.0,1.96610,0.00176,407.598,0.050,0.3059,0.0020,139.997,45.000,31735.93906,1.97216,409.112,36.356,45.070,45.000,0.00,0.07,-272.88,-272.92,-8,527,-949,21.1,9.4,-12.5,21.5,9.3,-12.4,0.48,1.72,-9.3,27.7
2016-10-19 00:53:00,0.0,1.96453,0.00253,407.578,0.062,0.3064,0.0021,140.001,45.000,31739.35953,1.97039,409.088,36.373,45.071,45.000,0.00,0.07,-272.89,-272.92,-7,526,-949,21.1,9.4,-12.5,21.5,9.2,-12.4,0.47,2.04,-9.3,27.7
2016-10-19 00:54:00,0.0,1.96778,0.00080,407.722,0.038,0.3088,0.0017,140.000,45.000,31738.08321,1.97382,409.249,36.401,45.071,45.000,0.00,0.07,-272.87,-272.92,-9,526,-949,21.0,9.4,-12.5,21.4,9.2,-12.4,0.48,1.84,-9.3,27.7
2016-10-19 00:55:00,0.0,1.96551,0.00163,407.612,0.048,0.3090,0.0015,140.000,45.000,31739.35418,1.97172,409.142,36.415,45.070,45.000,0.00,0.07,-272.88,-272.92,-7,527,-949,21.1,9.4,-12.5,21.5,9.3,-12.3,0.47,1.88,-9.3,27.7
2016-10-19 00:56:00,0.0,1.96614,0.00219,407.743,0.129,0.3093,0.0020,140.001,45.000,31739.20535,1.97211,409.271,36.423,45.070,45.000,0.00,0.07,-272.88,-272.92,-8,526,-949,21.0,9.5,-12.4,21.5,9.3,-12.3,0.48,2.00,-9.3,27.7
2016-10-19 00:57:00,0.0,1.96550,0.00089,407.793,0.084,0.3136,0.0026,139.999,45.000,31739.62350,1.97149,409.342,36.421,45.070,45.000,0.00,0.07,-272.88,-272.91,-9,526,-949,21.1,9.6,-12.2,21.4,9.4,-12.2,0.47,1.74,-9.3,27.6
2016-10-19 00:58:00,0.0,1.96648,0.00170,407.640,0.048,0.3182,0.0015,140.000,45.000,31738.10394,1.97278,409.214,36.438,45.070,45.000,0.00,0.07,-272.88,-272.91,-7,527,-949,21.0,9.7,-12.1,21.5,9.5,-12.0,0.48,2.10,-9.3,27.7
2016-10-19 00:59:00,0.0,1.96465,0.00107,407.608,0.089,0.3200,0.0022,140.000,45.000,31739.58327,1.97092,409.193,36.439,45.070,45.000,0.00,0.07,-272.88,-272.93,-8,526,-949,21.0,9.8,-12.0,21.5,9.6,-11.9,0.48,1.71,-9.3,27.7
2016-10-19 01:00:00,0.0,1.96309,0.00088,407.491,0.052,0.3234,0.0016,139.999,45.000,31739.56634,1.96943,409.090,36.438,45.070,45.000,0.00,0.07,-272.89,-272.92,-8,526,-949,21.0,9.9,-11.9,21.5,9.7,-11.8,0.48,2.07,-9.3,27.7
2016-10-19 01:01:00,0.0,1.96297,0.00094,407.472,0.036,0.3222,0.0022,139.998,45.000,31739.33681,1.96919,409.064,36.440,45.070,45.000,0.00,0.07,-272.87,-272.92,-7,526,-949,21.1,9.8,-11.9,21.5,9.7,-11.8,0.48,1.79,-9.3,27.7
2016-10-19 01:02:00,0.0,1.96381,0.00099,407.472,0.064,0.3171,0.0021,139.996,45.000,31736.16321,1.97006,409.041,36.438,45.070,45.000,0.00,0.07,-272.88,-272.92,-9,526,-949,21.1,9.7,-12.1,21.5,9.6,-11.9,0.47,1.94,-9.3,27.6
2016-10-19 01:03:00,0.0,1.96451,0.00069,407.567,0.076,0.3136,0.0018,140.001,45.000,31736.32664,1.97060,409.118,36.436,45.070,45.000,0.00,0.07,-272.88,-272.93,-7,526,-949,21.0,9.6,-12.3,21.5,9.5,-12.1,0.48,1.94,-9.3,27.7
2016-10-19 01:04:00,0.0,1.96496,0.00083,407.628,0.104,0.3109,0.0021,140.002,45.000,31738.54435,1.97096,409.162,36.437,45.070,45.000,0.00,0.07,-272.88,-272.91,-8,526,-949,21.0,9.5,-12.4,21.5,9.4,-12.2,0.47,1.79,-9.3,27.7
2016-10-19 01:05:00,0.0,1.96472,0.00067,407.479,0.081,0.3123,0.0021,139.999,45.000,31738.97331,1.97088,409.028,36.436,45.070,45.000,0.00,0.07,-272.88,-272.91,-8,526,-949,21.1,9.5,-12.3,21.5,9.4,-12.2,0.48,2.07,-9.3,27.6
2016-10-19 01:06:00,0.0,1.96531,0.00059,407.360,0.038,0.3153,0.0018,140.000,45.000,31738.82709,1.97135,408.917,36.414,45.071,45.000,0.00,0.07,-272.88,-272.92,-7,526,-949,21.1,9.6,-12.2,21.5,9.5,-12.1,0.47,1.71,-9.3,27.7
2016-10-19 01:07:00,0.0,1.96747,0.00112,407.523,0.060,0.3178,0.0018,139.998,45.000,31736.61023,1.97375,409.090,36.377,45.071,45.000,0.00,0.07,-272.89,-272.91,-9,526,-949,21.1,9.7,-12.1,21.5,9.6,-12.0,0.48,2.10,-9.3,27.7
2016-10-19 01:08:00,0.0,1.96196,0.00147,407.440,0.084,0.3170,0.0016,139.998,45.000,31736.41434,1.96827,409.011,36.369,45.071,45.001,0.00,0.07,-272.87,-272.91,-8,527,-949,21.0,9.7,-12.1,21.5,9.6,-12.0,0.48,1.72,-9.3,27.7
2016-10-19 01:09:00,0.0,1.96106,0.00082,407.337,0.033,0.3165,0.0015,140.002,45.000,31738.86317,1.96720,408.901,36.373,45.071,45.000,0.00,0.07,-272.88,-272.92,-7,526,-949,21.0,9.7,-12.2,21.5,9.5,-12.0,0.47,2.03,-9.3,27.7
2016-10-19 01:10:00,0.0,1.96223,0.00083,407.342,0.047,0.3166,0.0020,139.999,45.000,31737.57073,1.96837,408.905,36.377,45.071,45.001,0.00,0.07,-272.88,-272.93,-9,527,-949,21.1,9.7,-12.2,21.5,9.5,-12.1,0.48,1.83,-9.3,27.7
2016-10-19 01:11:00,0.0,1.96470,0.00199,407.374,0.050,0.3168,0.0016,140.002,45.000,31736.70153,1.97074,408.940,36.397,45.071,45.000,0.00,0.07,-272.88,-272.92,-7,526,-949,21.1,9.7,-12.2,21.5,9.5,-12.0,0.47,1.89,-9.3,27.7
2016-10-19 01:12:00,0.0,1.96248,0.00184,407.345,0.050,0.3168,0.0022,140.001,45.000,31737.74119,1.96888,408.912,36.420,45.071,45.000,0.00,0.07,-272.88,-272.93,-8,526,-949,21.1,9.7,-12.1,21.5,9.5,-12.0,0.48,1.99,-9.3,27.7
2016-10-19 01:13:00,0.0,1.95876,0.00080,407.278,0.059,0.3167,0.0014,139.999,45.000,31738.58395,1.96493,408.843,36.400,45.070,45.000,0.00,0.07,-272.88,-272.92,-8,527,-949,21.1,9.7,-12.1,21.5,9.5,-12.0,0.47,1.75,-9.3,27.7
2016-10-19 01:14:00,0.0,1.95858,0.00095,407.199,0.035,0.3146,0.0018,140.002,45.000,31741.04926,1.96475,408.755,36.375,45.070,45.000,0.00,0.07,-272.88,-272.92,-7,526,-949,21.1,9.6,-12.2,21.5,9.5,-12.0,0.48,2.09,-9.3,27.7
2016-10-19 01:15:00,0.0,1.95793,0.00131,407.092,0.034,0.3121,0.0021,140.001,45.000,31741.12919,1.96401,408.635,36.375,45.070,45.000,0.00,0.07,-272.87,-272.91,-9,527,-949,21.1,9.5,-12.3,21.5,9.4,-12.1,0.48,1.70,-9.3,27.7
2016-10-19 01:16:00,0.0,1.96113,0.00268,407.166,0.064,0.3104,0.0016,140.001,45.000,31738.76820,1.96705,408.696,36.373,45.070,45.000,0.00,0.07,-272.90,-272.92,-8,527,-949,21.1,9.5,-12.4,21.5,9.4,-12.1,0.48,2.09,-9.3,27.7
2016-10-19 01:17:00,0.0,1.95941,0.00068,407.086,0.044,0.3101,0.0017,140.001,45.000,31741.28090,1.96544,408.617,36.393,45.071,45.000,0.00,0.07,-272.88,-272.92,-8,526,-949,21.1,9.5,-12.3,21.5,9.3,-12.2,0.48,1.75,-9.3,27.7
2016-10-19 01:18:00,0.0,1.96230,0.00142,407.240,0.038,0.3109,0.0020,140.000,45.000,31740.92747,1.96842,408.776,36.397,45.071,45.000,0.00,0.07,-272.89,-272.91,-9,527,-949,21.1,9.5,-12.3,21.5,9.4,-12.2,0.47,2.00,-9.3,27.7
2016-10-19 01:19:00,0.0,1.95608,0.00050,407.081,0.046,0.3133,0.0018,139.996,45.000,31737.51365,1.96227,408.629,36.385,45.070,45.000,0.00,0.07,-272.88,-272.92,-7,526,-949,21.1,9.6,-12.3,21.5,9.4,-12.2,0.48,1.88,-9.3,27.7
2016-10-19 01:20:00,0.0,1.95699,0.00062,407.082,0.040,0.3175,0.0024,140.000,45.000,31738.80894,1.96313,408.648,36.420,45.070,45.000,0.00,0.07,-272.89,-272.92,-8,526,-949,21.1,9.7,-12.1,21.5,9.5,-12.1,0.47,1.86,-9.3,27.7
2016-10-19 01:21:00,0.0,1.95760,0.00066,407.084,0.046,0.3218,0.0015,139.999,45.000,31738.24231,1.96381,408.673,36.401,45.070,45.000,0.00,0.07,-272.87,-272.91,-8,527,-949,21.1,9.8,-11.9,21.5,9.7,-11.8,0.48,2.01,-9.3,27.7
2016-10-19 01:22:00,0.0,1.96048,0.00183,407.065,0.032,0.3235,0.0019,140.000,45.000,31737.15140,1.96664,408.664,36.377,45.070,45.000,0.00,0.07,-272.87,-272.91,-7,526,-949,21.1,9.9,-11.8,21.5,9.7,-11.7,0.47,1.74,-9.3,27.7
2016-10-19 01:23:00,0.0,1.96161,0.00073,407.012,0.038,0.3263,0.0017,139.999,45.000,31740.54254,1.96803,408.624,36.379,45.070,45.000,0.00,0.07,-272.89,-272.92,-9,526,-949,21.1,9.9,-11.8,21.5,9.7,-11.7,0.48,2.10,-9.3,27.7
2016-10-19 01:24:00,0.0,1.96037,0.00054,407.001,0.033,0.3280,0.0017,140.002,45.000,31743.17377,1.96671,408.622,36.388,45.071,45.000,0.00,0.07,-272.88,-272.92,-7,527,-949,21.1,10.0,-11.7,21.5,9.8,-11.7,0.48,1.70,-9.3,27.7
2016-10-19 01:25:00,0.0,1.96305,0.00086,407.057,0.042,0.3307,0.0019,139.999,45.000,31739.03457,1.96948,408.689,36.408,45.071,45.000,0.00,0.07,-272.88,-272.91,-8,526,-949,21.1,10.1,-11.6,21.5,9.9,-11.6,0.48,2.09,-9.3,27.7
2016-10-19 01:26:00,0.0,1.95947,0.00107,407.030,0.038,0.3353,0.0020,139.998,45.000,31739.68919,1.96609,408.687,36.414,45.070,45.000,0.00,0.07,-272.88,-272.93,-9,527,-949,21.1,10.2,-11.4,21.5,10.0,-11.4,0.48,1.76,-9.3,27.7
2016-10-19 01:27:00,0.0,1.95810,0.00045,407.026,0.037,0.3359,0.0018,139.998,45.000,31739.60896,1.96468,408.686,36.420,45.070,45.000,0.00,0.07,-272.89,-272.92,-7,526,-949,21.1,10.2,-11.4,21.5,10.0,-11.4,0.47,1.99,-9.3,27.7
2016-10-19 01:28:00,0.0,1.95598,0.00139,407.100,0.069,0.3340,0.0015,139.997,45.000,31739.84038,1.96255,408.748,36.388,45.070,45.000,0.00,0.07,-272.88,-272.93,-9,526,-949,21.1,10.2,-11.5,21.5,10.0,-11.3,0.48,1.88,-9.3,27.7
2016-10-19 01:29:00,0.0,1.95511,0.00043,407.201,0.042,0.3303,0.0019,140.000,45.000,31740.50693,1.96156,408.834,36.379,45.071,45.000,0.00,0.07,-272.89,-272.92,-8,527,-949,21.1,10.0,-11.7,21.5,9.9,-11.5,0.47,1.85,-9.3,27.7
2016-10-19 01:30:00,0.0,1.95537,0.00051,407.220,0.034,0.3296,0.0023,140.001,45.000,31739.63310,1.96172,408.847,36.375,45.071,45.000,0.00,0.07,-272.89,-272.92,-8,526,-949,21.1,10.0,-11.7,21.5,9.9,-11.6,0.48,2.01,-9.3,27.7
2016-10-19 01:31:00,0.0,1.95574,0.00045,407.405,0.109,0.3251,0.0053,140.001,45.000,31739.64366,1.96206,409.008,36.376,45.071,45.000,0.00,0.07,-272.88,-272.92,-9,527,-949,21.1,9.9,-11.8,21.5,9.8,-11.6,0.47,1.74,-9.3,27.7
2016-10-19 01:32:00,0.0,1.95570,0.00035,407.478,0.083,0.3183,0.0022,139.998,45.000,31740.19732,1.96188,409.049,36.385,45.071,45.000,0.00,0.07,-272.88,-272.91,-7,527,-949,21.1,9.7,-12.0,21.5,9.6,-11.9,0.48,2.10,-9.3,27.7
2016-10-19 01:33:00,0.0,1.95601,0.00050,407.491,0.206,0.3173,0.0039,139.998,45.000,31740.42530,1.96218,409.066,36.404,45.071,45.000,0.00,0.07,-272.89,-272.92,-9,526,-949,21.1,9.7,-12.1,21.5,9.6,-11.9,0.47,1.70,-9.3,27.7
2016-10-19 01:34:00,0.0,1.95663,0.00058,407.465,0.085,0.3086,0.0024,139.997,45.000,31740.76378,1.96265,408.992,36.433,45.070,45.000,0.00,0.07,-272.89,-272.91,-8,527,-949,21.1,9.4,-12.4,21.5,9.4,-12.2,0.48,2.09,-9.3,27.7
2016-10-19 01:35:00,0.0,1.95634,0.00075,407.485,0.094,0.3035,0.0023,140.000,45.000,31742.99060,1.96221,408.981,36.437,45.070,45.000,0.00,0.07,-272.87,-272.91,-7,526,-949,21.1,9.3,-12.6,21.5,9.2,-12.4,0.48,1.75,-9.3,27.7
2016-10-19 01:36:00,0.0,1.95386,0.00102,407.184,0.148,0.3034,0.0026,140.000,45.000,31742.63176,1.95983,408.689,36.438,45.070,45.000,0.00,0.07,-272.89,-272.92,-9,526,-949,21.1,9.2,-12.6,21.5,9.2,-12.5,0.47,2.00,-9.3,27.7
2016-10-19 01:37:00,0.0,1.95338,0.00056,407.152,0.109,0.3074,0.0014,140.000,45.000,31743.21683,1.95934,408.667,36.437,45.070,45.000,0.00,0.07,-272.88,-272.93,-7,527,-949,21.1,9.4,-12.5,21.5,9.2,-12.4,0.48,1.87,-9.3,27.7
2016-10-19 01:38:00,0.0,1.95300,0.00035,407.173,0.050,0.3027,0.0035,139.994,45.000,31741.08463,1.95888,408.671,36.438,45.070,45.000,0.00,0.07,-272.88,-272.92,-8,526,-949,21.1,9.3,-12.7,21.5,9.2,-12.4,0.47,1.87,-9.3,27.7
2016-10-19 01:39:00,0.0,1.95365,0.00064,407.279,0.061,0.2942,0.0026,140.001,45.000,31742.77603,1.95929,408.730,36.438,45.070,45.000,0.00,0.07,-272.88,-272.92,-8,527,-949,21.1,9.0,-13.0,21.5,9.0,-12.7,0.48,2.00,-9.3,27.7
2016-10-19 01:40:00,0.0,1.95507,0.00049,407.365,0.044,0.2918,0.0013,139.997,45.000,31741.46445,1.96068,408.804,36.438,45.070,45.000,0.00,0.07,-272.89,-272.92,-7,527,-949,21.1,8.9,-13.1,21.5,8.8,-12.9,0.47,1.75,-9.3,27.7
2016-10-19 01:41:00,0.0,1.95533,0.00054,407.441,0.057,0.2883,0.0019,140.000,45.000,31742.43194,1.96096,408.865,36.438,45.070,45.000,0.00,0.07,-272.88,-272.92,-9,526,-949,21.1,8.8,-13.2,21.5,8.8,-13.0,0.48,2.09,-9.3,27.7
2016-10-19 01:42:00,0.0,1.95434,0.00075,407.399,0.085,0.2852,0.0018,140.001,45.000,31742.95728,1.95986,408.806,36.439,45.070,45.000,0.00,0.07,-272.88,-272.91,-7,527,-949,21.1,8.8,-13.3,21.5,8.7,-13.1,0.47,1.70,-9.3,27.7
2016-10-19 01:43:00,0.0,1.95410,0.00048,407.331,0.089,0.2854,0.0014,140.002,45.000,31741.79586,1.95967,408.743,36.437,45.070,45.000,0.00,0.07,-272.89,-272.92,-8,526,-949,21.1,8.8,-13.3,21.5,8.7,-13.2,0.48,2.11,-9.3,27.7
2016-10-19 01:44:00,0.0,1.95369,0.00039,407.313,0.069,0.2856,0.0018,140.000,45.000,31742.73278,1.95924,408.721,36.438,45.070,45.000,0.00,0.07,-272.88,-272.92,-9,527,-949,21.1,8.8,-13.3,21.5,8.7,-13.1,0.48,1.73,-9.3,27.7
2016-10-19 01:45:00,0.0,1.95407,0.00041,407.387,0.040,0.2839,0.0018,140.004,45.000,31741.65739,1.95955,408.787,36.399,45.070,45.000,0.00,0.07,-272.88,-272.91,-7,527,-949,21.1,8.7,-13.4,21.5,8.6,-13.2,0.47,2.04,-9.3,27.7